Regional Weather Roundup
Issued by NWS Cleveland, OH

Home | Current Version | Previous Version | Graphics & Text | Print | Product List | Glossary On
Versions: 1 2 3 4 5 6 7 8 9 10 11 12 13 14 15 16 17 18 19 20 21 22 23 24 25 26 27 28 29 30 31 32 33 34 35 36 37 38 39 40 41 42 43 44 45 46 47 48 49 50
000
ASUS41 KCLE 291102
RWRCLE
OHIO REGIONAL WEATHER ROUNDUP
NATIONAL WEATHER SERVICE CLEVELAND, OH
700 AM EDT FRI AUG 29 2014

NOTE: "FAIR" INDICATES FEW OR NO CLOUDS BELOW 12,000 FEET WITH NO
SIGNIFICANT WEATHER AND/OR OBSTRUCTIONS TO VISIBILITY.

OHZ001>008-015>018-024>027-034-035-043-044-291200-
   NORTHWEST OHIO

CITY           SKY/WX    TMP DP  RH WIND       PRES   REMARKS
DEFIANCE       PTCLDY    61  55  81 CALM      30.11R
FINDLAY        PTCLDY    58  52  80 SE7       30.11R
TOLEDO EXPRESS PTCLDY    56  50  80 CALM      30.12R
TOLEDO EXEC    PTCLDY    57  50  77 CALM      30.13R
LIMA           PTCLDY    61  53  75 SE8       30.11R
$$

OHZ009>014-019>023-028>033-038-089-291200-
   NORTHEAST OHIO

CITY           SKY/WX    TMP DP  RH WIND       PRES   REMARKS
CLE-HOPKINS    PTCLDY    55  50  83 E6        30.17S
CLE-LAKEFRONT  PTCLDY    56  51  84 SE5       30.16R
CUY CO. ARPT   PTCLDY    55  52  88 SE8       30.17
LORAIN-ELYRIA  CLEAR     53  48  83 SE5       30.16R
ASHTABULA      PTCLDY    49  48  97 CALM      30.19R
AKRON-CANTON   PTCLDY    54  48  80 E6        30.16R
WOOSTER        FOG       46  44  93 CALM      30.17R VSB 1/2
MANSFIELD      CLEAR     55  51  86 SE6       30.15R
YOUNGSTOWN     PTCLDY    47  45  93 E6        30.18R
$$

OHZ042-051>053-060>062-070>072-077>081-291200-
  SOUTHWEST OHIO

CITY           SKY/WX    TMP DP  RH WIND       PRES   REMARKS
CINC-COVINGTON PTCLDY    67  60  78 E7        30.08R
CINC-LUNKEN    PTCLDY    64  60  87 N3        30.09R
HAMILTON       PTCLDY    65  59  81 E6        30.10R
DAYTON         PTCLDY    64  56  75 SE8       30.12R
WRIGHT-PAT AFB PTCLDY    63  57  82 NE3       30.11R
DAYTON GENERAL PTCLDY    63  58  83 E7        30.09S
WILMINGTON     PTCLDY    60  56  86 E5        30.11R
$$

OHZ036-037-039>041-045>050-054>059-063>069-073>076-082>088-291200-
  CENTRAL AND SOUTHEAST OHIO

CITY           SKY/WX    TMP DP  RH WIND       PRES   REMARKS
COLUMBUS       PTCLDY    63  52  67 E8        30.12R
OSU AIRPORT    CLEAR     58  52  80 E5        30.13R
BOLTON FIELD   CLEAR     58  55  87 E3        30.13S
RICKENBACK AFB CLEAR     58  51  78 CALM      30.12R
NEWARK         CLEAR     55  52  89 CALM      30.14R
MARION         PTCLDY    57  51  80 SE8       30.13S
LANCASTER      CLEAR     56  53  90 CALM      30.13S
ZANESVILLE     CLEAR     53  50  89 CALM      30.15R
NEW PHILLY     PTCLDY    49  48  97 CALM      30.17R
$$


USA.gov is the U.S. government's official web portal to all federal, state and local government web resources and services.